Content
SEND FEEDBACK

Daily
Averages
Monthly
Summary
United States of America

WATSON, TEXAS


Home > North America > United States > Texas
Elevation: 1050 feet     Latitude: 30 56N     Longitude: 098 01W

WEATHER
 
SELECT A DAY
Number of Records: 190,156;   Date Range: 1/1/95 - 9/16/14
 
SHARE

PRINT THIS DATA

[ ← Previous Day ]
WEATHER ALMANAC - JANUARY 31, 2013
[ Next Day → ]
[ °C ]   °F
Weather ElementAverageHighLow
Temperature53 °F68 °F (2:55 pm)39.2 °F (6:55 am)
Dewpoint19.2 °F24.8 °F (9:55 pm)15.8 °F (2:55 am)
Humidity27.8 %39 % (1:55 am)15 % (1:55 pm)
Barometer30.20 in30.27 in (10:55 am)30.12 in (7:55 pm)
Wind Speed11 mph17.3 mph (9:55 am)
Wind Gust23 mph (1:55 pm)
Weather ElementAverage
Visibility7 mi
Wind DirectionSSW (206.5 °)

Weather ElementTotal
Precipitation---
Heating Degree Days11.4 (Base 65)
Growing Degree Days3.6 (Base 50)
Averaged from 23 records on January 31, 2013
WEATHER CONDITIONS BREAKOUT
WIND DIRECTION BREAKOUT
WEATHER BY HOUR - JANUARY 31, 2013
[ °C ]   °F
Local TimeTemperatureDewpointHumidityBarometerVisibilityWind DirectionWind SpeedGust SpeedPrecipitationEventsConditions
1:55 AM41.0 °F17.6 °F39 %30.21 in7.0 miSSW (200°)9.2 mphClear
2:55 AM42.8 °F15.8 °F34 %30.19 in7.0 miSSW (210°)13.8 mphPartly Cloudy
3:55 AM44.6 °F15.8 °F31 %30.18 in7.0 miSSW (210°)10.4 mphClear
4:55 AM44.6 °F15.8 °F31 %30.17 in7.0 miSSW (210°)11.5 mphClear
5:55 AM41.0 °F15.8 °F36 %30.19 in7.0 miSSW (200°)12.7 mphClear
6:55 AM39.2 °F15.8 °F39 %30.22 in7.0 miSSW (200°)15.0 mphPartly Cloudy
7:55 AM41.0 °F17.6 °F39 %30.24 in7.0 miSouth (190°)10.4 mphPartly Cloudy
8:55 AM46.4 °F17.6 °F32 %30.26 in7.0 miSW (220°)13.8 mphPartly Cloudy
9:55 AM51.8 °F19.4 °F28 %30.26 in7.0 miSW (220°)17.3 mphPartly Cloudy
10:55 AM57.2 °F19.4 °F23 %30.27 in7.0 miSW (230°)9.2 mphScattered Clouds
11:55 AM62.6 °F17.6 °F18 %30.26 in7.0 miSW (220°)15.0 mphScattered Clouds
12:55 PM50.0 °F17.6 °F28 %30.22 in7.0 miSW (220°)15.0 mphScattered Clouds
1:55 PM66.2 °F17.6 °F15 %30.19 in7.0 miWSW (240°)15.0 mph23.0 mphScattered Clouds
2:55 PM68.0 °F19.4 °F16 %30.17 in7.0 miSW (230°)9.2 mphScattered Clouds
3:55 PM68.0 °F19.4 °F16 %30.15 in7.0 miSouth (190°)10.4 mphPartly Cloudy
4:55 PM66.2 °F21.2 °F18 %30.16 in7.0 miSSW (200°)9.2 mphPartly Cloudy
5:55 PM62.6 °F23.0 °F22 %30.17 in7.0 miSSW (200°)8.1 mphScattered Clouds
6:55 PM59.0 °F21.2 °F23 %30.19 in7.0 miSouth (190°)6.9 mphScattered Clouds
7:55 PM53.6 °F23.0 °F30 %30.12 in7.0 miSouth (190°)6.9 mphScattered Clouds
8:55 PM53.6 °F19.4 °F26 %30.13 in7.0 miSE (140°)4.6 mphScattered Clouds
9:55 PM50.0 °F24.8 °F37 %30.14 in7.0 miSouth (190°)4.6 mphScattered Clouds
10:55 PM55.4 °F23.0 °F29 %30.25 in7.0 miSW (230°)13.8 mphScattered Clouds
11:55 PM53.6 °F23.0 °F30 %30.25 in7.0 miSW (220°)11.5 mphScattered Clouds
Hourly data recorded from KGRK, located miles away from Watson, Texas







STORIES FROM OUR PARTNERS